Location: Malanoce
(44.2500°N, 7.4667°E)
Time: 20:48:11
(UTC+00:00)

Cosmos 1833 Rocket - Pass Details

Date: 17 November 2025
Orbit: 829 x 840 km, 71.0° (Epoch: 11 December)

Event Time Altitude Azimuth Distance (km) Brightness Sun altitude
Rises 16:40:22 0° 332° (NNW) 3,404 6.0 -7.3°
Reaches altitude 10° 16:42:49 10° 331° (NNW) 2,465 5.3 -7.7°
Maximum altitude 16:48:27 71° 249° (WSW) 890 3.1 -8.6°
Drops below altitude 10° 16:54:02 10° 166° (SSE) 2,447 5.2 -9.6°
Sets 16:56:28 0° 164° (SSE) 3,376 5.9 -10.0°
